Starlink 33805

operational
NORAD ID: 63590 Int'l Des: 2025-076 Owner: SPXS Country: US Constellation: starlink
LEOCIRCULAR

Starlink 33805について

説明を読み込み中...

リアルタイム位置

3D地球を読み込み中...

次回通過

高度履歴

Altitude vs Time

uPlot chart will show altitude changes over time

軌道要素

1 63590U 25076X 26061.54629724 .00025634 00000-0 93755-3 0 9999
2 63590 43.0064 2.3934 0001926 264.4556 95.6076 15.27588707 50731
Epoch: Mar 2, 2026 • Age: 32 hours

現在のステータス

高度 482.9 km
速度 7.63 km/s
衛星直下点 -1.98°S, 75.8°E
打ち上げ日 Apr 14, 2025
運用期間 0.8 years
タイプ internet

技術仕様

分類 Payload
質量 575.00 kg
乾燥質量 530.00 kg
総質量 575.00 kg
長さ 0.30 m
直径 4.10 m
スパン 29.00 m
形状 Box + pan
製造者 SPXS
バスタイプ Starlink V2MO
フェーズステータス In Orbit
所有者/国 SPXS/US

大規模コンステレーション

Loading constellations...